Tracking 29892 objects as of 21-Nov-2024
HD Live streaming from Space Station
objects crossing your sky now

STARLINK-4650

Track STARLINK-4650 now!
10-day predictions
STARLINK-4650 is classified as:


NORAD ID: 53611
Int'l Code: 2022-104Z
Perigee: 479.9 km
Apogee: 491.2 km
Inclination: 53.2 °
Period: 94.2 minutes
Semi major axis: 6856 km
RCS: Unknown
Launch date: August 28, 2022
Source: United States (US)
Launch site: AIR FORCE EASTERN TEST RANGE (AFETR)
Your satellite tracking list
Your tracking list is empty




NASA's NSSDC Master Catalog

Two Line Element Set (TLE):
1 53611U 22104Z   24325.63445497  .00052682  00000-0  18368-2 0  9994
2 53611  53.1956 187.9303 0008253 119.3503 240.8323 15.29120317124390
Source of the keplerian elements: AFSPC